Location: Newark
(40.4667°N, 5.6000°W)
Time: 07:49:44
(UTC+00:00)

A-11 Canister half - Pass Details

Date: 29 November 2019
Orbit: 1526 x 1683 km, 47.3° (Epoch: 15 December)

Event Time Altitude Azimuth Distance (km) Brightness Sun altitude
Rises 17:16:39 0° 295° (WNW) 4,834 12.3 -4.2°
Reaches altitude 10° 17:20:28 10° 283° (WNW) 3,819 12.0 -4.8°
Maximum altitude 17:27:51 26° 232° (SW) 2,736 11.4 -6.1°
Drops below altitude 10° 17:35:05 10° 181° (S) 3,717 11.3 -7.4°
Sets 17:38:47 0° 169° (S) 4,681 11.7 -8.0°
